Regional Weather Roundup
Issued by NWS

Home | Current Version | Previous Version | Text Only | Print | Product List | Glossary Off
Versions: 1 2 3 4 5 6 7 8 9 10 11 12 13 14 15 16 17 18 19 20 21 22 23 24 25 26 27 28 29 30 31 32 33 34 35 36 37 38 39 40 41 42 43 44 45 46 47 48 49 50

000
ASUS43 KLMK 240102
RWRKY
KENTUCKY REGIONAL WEATHER ROUNDUP
NATIONAL WEATHER SERVICE LOUISVILLE KY
900 PM EDT SAT MAY 23 2015

NOTE "FAIR" INDICATES FEW OR NO CLOUDS BELOW 12,000 FEET
WITH NO SIGNIFICANT WEATHER AND/OR OBSTRUCTIONS TO VISIBILITY.

KYZ001>023-026-027-061>063-070>075-240200-
WESTERN AND SOUTH CENTRAL KENTUCKY

CITY           SKY/WX    TMP DP  RH WIND       PRES   REMARKS
PADUCAH        CLEAR     71  55  56 SE6       30.18S
HENDERSON      PTCLDY    73  50  43 SE3       30.19F
OWENSBORO      PTCLDY    73  53  49 SE6       30.22F
HOPKINSVILLE   PTCLDY    74  54  49 E2        30.21F
BOWLING GREEN  CLEAR     73  53  49 NE3       30.24S
GLASGOW        NOT AVBL
$$

KYZ024-025-028>034-038-045-046-053-240200-
NORTH CENTRAL KENTUCKY

CITY           SKY/WX    TMP DP  RH WIND       PRES   REMARKS
LOUISVILLE/SDF CLEAR     76  46  34 S5        30.23F
LOUISVILLE/LOU CLEAR     77  46  33 CALM      30.25S
FORT KNOX      CLEAR     66  49  55 CALM      30.23S
$$

KYZ035>037-039>044-047>052-055>060-089>105-240200-
NORTHEAST KENTUCKY

CITY           SKY/WX    TMP DP  RH WIND       PRES   REMARKS
LEXINGTON      CLEAR     72  46  39 E5        30.28S
COVINGTON      PTCLDY    69  45  41 S5        30.27S
FRANKFORT      CLEAR     72  46  39 E3        30.26S
$$

KYZ054-064>069-076>088-106>120-240200-
SOUTHEAST KENTUCKY

CITY           SKY/WX    TMP DP  RH WIND       PRES   REMARKS
JACKSON        CLEAR     69  49  48 VRB3      30.30F
LONDON         CLEAR     72  50  45 CALM      30.28F
SOMERSET       NOT AVBL
MIDDLESBORO    PTCLDY    68  56  66 NW3       30.29F
MONTICELLO     CLEAR     69  54  58 CALM      30.30S
$$




USA.gov is the U.S. government's official web portal to all federal, state and local government web resources and services.